User: anonymous   Login
Location: Caltech
(34.1382°N, 118.1253°W)
Time: 12:08:41
(UTC-07:00)
Language:

Cosmos 2333 Rocket - Orbit

View from above orbital plane
View from above orbital plane
View from above satellite
View from above satellite

Ground track
Ground track

The orbit data is extracted from the following two-line orbital elements,

1 24298U 96051B   16178.14389257  .00000071  00000-0  64534-4 0  9992
2 24298  70.8375  92.5515 0015304 340.0788  19.9733 14.12407715 21543
Epoch (UTC): 26 June 2016 03:27:12
Eccentricity: 0.0015304
inclination: 70.8375°
perigee height: 840 km
apogee height: 862 km
right ascension of ascending node: 92.5515°
argument of perigee: 340.0788°
revolutions per day: 14.12407715
mean anomaly at epoch: 19.9733°
orbit number at epoch: 2154

The dashed part of the orbit path shows where the satellite is in the earth's shadow,  

DLR